Harvey, ND

4:37 AM CST on November 21, 2019 (GMT -0600)
Harvey

Weather History for K5H4 - September, 2019

Change the Weather History Date:

Thursday, September 19, 2019

  Actual Average (KRUG) Record (KRUG)
Temperature  
Mean Temperature 62 °F -  
Max Temperature 77 °F 65 °F 88 °F (1960)
Min Temperature 48 °F 44 °F 25 °F (1957)
Degree Days  
Heating Degree Days 2    
Growing Degree Days 12 (Base 50)    
Moisture  
Dew Point 58 °F    
Average Humidity 87    
Maximum Humidity 100    
Minimum Humidity 57    
Precipitation  
Precipitation 0.00 in - - ()
Sea Level Pressure  
Sea Level Pressure 29.96 in    
Wind  
Wind Speed 6 mph (ESE)    
Max Wind Speed 16 mph    
Max Gust Speed 22 mph    
Visibility 7 miles    
Events Fog    
Averages and records for this station are not official NWS values.
T = Trace of Precipitation, MM = Missing Value Source: NWS Daily Summary

Daily Weather History Graph

Daily Weather History Graph

Search for Another Location

Airport or City:

Astronomy

Sep. 19, 2019 Rise Set
Actual Time 7:22 AM CDT 7:44 PM CDT
Civil Twilight 6:51 AM CDT 8:14 PM CDT
Nautical Twilight 6:14 AM CDT 8:51 PM CDT
Astronomical Twilight 5:36 AM CDT 9:29 PM CDT
Moon 10:31 PM CDT (9/19) 12:48 PM CDT (9/19)
Length of Visible Light 13h 23m
Length of Day
12h 21m
Waning Gibbous, 74% of the Moon is Illuminated
Sep 19
Waning Gibbous
Sep 21
Last Quarter
Sep 28
New
Oct 5
First Quarter
Oct 13
Full

Hourly Weather History & Observations

Time (CDT) Temp. Dew Point Humidity Pressure Visibility Wind Dir Wind Speed Gust Speed Precip Events Conditions
12:35 AM 53.6 °F 53.6 °F 100% 29.94 in 10.0 mi South 4.6 mph - N/A   Clear
12:55 AM 53.6 °F 53.6 °F 100% 29.95 in 10.0 mi Calm Calm - N/A   Clear
1:15 AM 53.6 °F 53.6 °F 100% 29.95 in 10.0 mi Calm Calm - N/A   Clear
1:35 AM 53.6 °F 53.6 °F 100% 29.96 in 10.0 mi Calm Calm - N/A   Clear
1:55 AM 51.8 °F 51.8 °F 100% 29.96 in 10.0 mi Calm Calm - N/A   Clear
2:15 AM 51.8 °F 51.8 °F 100% 29.96 in 9.0 mi Calm Calm - N/A   Clear
2:35 AM 51.8 °F 51.8 °F 100% 29.95 in 10.0 mi Calm Calm - N/A   Clear
2:55 AM 51.8 °F 51.8 °F 100% 29.96 in 1.2 mi Calm Calm - N/A   Clear
3:15 AM 51.8 °F 51.8 °F 100% 29.97 in 1.0 mi Calm Calm - N/A   Clear
3:35 AM 51.8 °F 51.8 °F 100% 29.98 in 5.0 mi SW 4.6 mph - N/A   Clear
3:55 AM 50.0 °F 50.0 °F 100% 29.98 in 1.2 mi SW 3.5 mph - N/A   Clear
4:15 AM 50.0 °F 50.0 °F 100% 29.98 in 0.2 mi Calm Calm - N/A Fog Fog
4:35 AM 48.2 °F 48.2 °F 100% 29.98 in 0.8 mi Calm Calm - N/A   Mist
4:55 AM - - N/A% 29.98 in 0.2 mi East 3.5 mph - N/A Fog Fog
5:15 AM 50.0 °F 50.0 °F 100% 29.98 in 0.2 mi East 3.5 mph - N/A Fog Fog
5:35 AM 48.2 °F 48.2 °F 100% 29.97 in 0.2 mi ENE 3.5 mph - N/A Fog Fog
5:55 AM 48.2 °F 48.2 °F 100% 29.97 in 0.2 mi ENE 3.5 mph - N/A Fog Fog
6:15 AM 48.2 °F 48.2 °F 100% 29.98 in 0.2 mi East 3.5 mph - N/A Fog Fog
6:35 AM 48.2 °F 48.2 °F 100% 29.98 in 0.8 mi East 5.8 mph - N/A   Mist
6:55 AM 48.2 °F 48.2 °F 100% 29.98 in 0.2 mi East 6.9 mph - N/A Fog Fog
7:15 AM 48.2 °F 48.2 °F 100% 29.99 in 0.2 mi East 5.8 mph - N/A Fog Fog
7:35 AM 51.8 °F 51.8 °F 100% 29.99 in 0.2 mi SE 4.6 mph - N/A Fog Fog
7:55 AM 51.8 °F 51.8 °F 100% 29.99 in 0.2 mi ESE 4.6 mph - N/A Fog Fog
8:15 AM 51.8 °F 51.8 °F 100% 30.00 in 0.2 mi Calm Calm - N/A Fog Fog
8:55 AM 53.6 °F 53.6 °F 100% 30.00 in 0.2 mi East 5.8 mph - N/A Fog Fog
9:15 AM 55.4 °F 55.4 °F 100% 30.00 in 0.2 mi East 4.6 mph - N/A Fog Fog
9:35 AM 57.2 °F 57.2 °F 100% 30.00 in 0.2 mi ESE 8.1 mph - N/A Fog Fog
9:55 AM 59.0 °F 59.0 °F 100% 30.01 in 0.8 mi ESE 5.8 mph - N/A   Overcast
10:15 AM 59.0 °F 59.0 °F 100% 30.01 in 1.8 mi ESE 9.2 mph - N/A   Overcast
10:35 AM 59.0 °F 59.0 °F 100% 30.02 in 3.0 mi ESE 11.5 mph - N/A   Overcast
10:55 AM 59.0 °F 59.0 °F 100% 30.02 in 8.0 mi ESE 12.7 mph - N/A   Overcast
11:15 AM 60.8 °F 60.8 °F 100% 30.02 in 10.0 mi East 11.5 mph - N/A   Overcast
11:35 AM 62.6 °F 62.6 °F 100% 30.02 in 10.0 mi East 10.4 mph - N/A   Overcast
11:55 AM 64.4 °F 60.8 °F 88% 30.01 in 10.0 mi East 12.7 mph - N/A   Overcast
12:15 PM 66.2 °F 62.6 °F 88% 30.01 in 10.0 mi East 12.7 mph - N/A   Mostly Cloudy
12:55 PM 69.8 °F 62.6 °F 78% 30.01 in 10.0 mi East 15.0 mph - N/A   Scattered Clouds
1:15 PM 69.8 °F 62.6 °F 78% 30.00 in 10.0 mi East 11.5 mph 18.4 mph N/A   Clear
1:35 PM 71.6 °F 62.6 °F 73% 29.99 in 10.0 mi ESE 12.7 mph - N/A   Clear
1:55 PM 73.4 °F 62.6 °F 69% 29.99 in 10.0 mi East 12.7 mph - N/A   Clear
2:15 PM 75.2 °F 62.6 °F 65% 29.98 in 10.0 mi ESE 10.4 mph 18.4 mph N/A   Clear
2:35 PM 75.2 °F 60.8 °F 61% 29.97 in 10.0 mi ESE 16.1 mph - N/A   Clear
2:55 PM 77.0 °F 60.8 °F 57% 29.96 in 10.0 mi ESE 15.0 mph - N/A   Clear
3:15 PM 77.0 °F 60.8 °F 57% 29.96 in 10.0 mi East 16.1 mph - N/A   Clear
3:35 PM 77.0 °F 62.6 °F 61% 29.96 in 10.0 mi ESE 12.7 mph 19.6 mph N/A   Clear
3:55 PM 77.0 °F 60.8 °F 57% 29.95 in 10.0 mi ESE 13.8 mph - N/A   Clear
4:15 PM 77.0 °F 60.8 °F 57% 29.94 in 10.0 mi SE 10.4 mph 18.4 mph N/A   Clear
4:35 PM 77.0 °F 60.8 °F 57% 29.94 in 10.0 mi SE 10.4 mph 20.7 mph N/A   Clear
4:55 PM 77.0 °F 60.8 °F 57% 29.93 in 10.0 mi ESE 13.8 mph - N/A   Clear
5:15 PM 77.0 °F 60.8 °F 57% 29.93 in 10.0 mi SE 11.5 mph 19.6 mph N/A   Clear
5:35 PM 77.0 °F 60.8 °F 57% 29.93 in 10.0 mi ESE 15.0 mph - N/A   Clear
5:55 PM 77.0 °F 60.8 °F 57% 29.92 in 10.0 mi ESE 15.0 mph - N/A   Clear
6:15 PM 75.2 °F 62.6 °F 65% 29.92 in 10.0 mi ESE 15.0 mph 21.9 mph N/A   Clear
6:35 PM 75.2 °F 62.6 °F 65% 29.92 in 10.0 mi ESE 13.8 mph - N/A   Clear
6:55 PM 73.4 °F 62.6 °F 69% 29.91 in 10.0 mi ESE 11.5 mph 18.4 mph N/A   Clear
7:15 PM 73.4 °F 62.6 °F 69% 29.91 in 10.0 mi ESE 11.5 mph - N/A   Clear
7:35 PM 71.6 °F 62.6 °F 73% 29.91 in 10.0 mi ESE 12.7 mph - N/A   Clear
7:55 PM 69.8 °F 62.6 °F 78% 29.91 in 10.0 mi ESE 9.2 mph 15.0 mph N/A   Clear
8:15 PM 68.0 °F 62.6 °F 83% 29.91 in 10.0 mi ESE 10.4 mph - N/A   Clear
8:35 PM 68.0 °F 64.4 °F 88% 29.91 in 10.0 mi ESE 10.4 mph - N/A   Clear
8:55 PM 66.2 °F 64.4 °F 94% 29.91 in 10.0 mi ESE 12.7 mph 18.4 mph N/A   Clear
9:15 PM 66.2 °F 64.4 °F 94% 29.91 in 10.0 mi ESE 12.7 mph 19.6 mph N/A   Clear
9:35 PM 66.2 °F 64.4 °F 94% 29.91 in 10.0 mi ESE 12.7 mph - N/A   Clear
9:55 PM 64.4 °F 64.4 °F 100% 29.91 in 10.0 mi ESE 12.7 mph - N/A   Clear
10:15 PM 64.4 °F 64.4 °F 100% 29.90 in 10.0 mi ESE 15.0 mph - N/A   Clear
10:35 PM 64.4 °F 64.4 °F 100% 29.90 in 10.0 mi ESE 16.1 mph 21.9 mph N/A   Clear
10:55 PM 64.4 °F 64.4 °F 100% 29.90 in 10.0 mi ESE 15.0 mph 20.7 mph N/A   Clear
11:15 PM - - N/A% 29.89 in 10.0 mi ESE 15.0 mph - N/A   Clear
11:35 PM 62.6 °F 62.6 °F 100% 29.89 in 10.0 mi ESE 12.7 mph 19.6 mph N/A   Clear
11:55 PM 62.6 °F 62.6 °F 100% 29.88 in 10.0 mi ESE 13.8 mph 19.6 mph N/A   Clear